Location: Harwich
(41.7160°N, 69.9939°W)
Time: 13:54:00
(UTC+01:00)

A-11 Canister half - Pass Details

Date: 04 December 2023
Orbit: 1526 x 1682 km, 47.3° (Epoch: 01 March)

Event Time Altitude Azimuth Distance (km) Brightness Sun altitude
Rises 23:16:25 0° 205° (SSW) 4,900 12.4 -12.2°
Reaches altitude 10° 23:19:50 10° 198° (SSW) 3,925 11.7 -12.8°
Maximum altitude 23:28:54 39° 134° (SE) 2,329 9.7 -14.4°
Enters shadow 23:35:17 20° 79° (E) 3,229 10.0 -15.5°
Drops below altitude 10° 23:37:58 10° 70° (ENE) 3,928 - -16.0°
Sets 23:41:21 0° 63° (ENE) 4,905 - -16.6°
